Content
SEND FEEDBACK

Daily
Averages
Monthly
Summary
Italy

BARI, ITALY


Home > Europe > Italy
Elevation: 144 feet     Latitude: 41 08N     Longitude: 016 47E

WEATHER
 
SELECT A DAY
Number of Records: 290,951;   Date Range: 7/1/96 - 4/14/14
 
SHARE

PRINT THIS DATA

[ ← Previous Day ]
WEATHER ALMANAC - FEBRUARY 28, 2013
[ Next Day → ]
[ °C ]   °F
Weather ElementAverageHighLow
Temperature48.1 °F55.4 °F (1:20 pm)41 °F (11:20 pm)
Dewpoint42.2 °F44.6 °F (12:50 pm)39.2 °F (6:20 am)
Humidity80.8 %100 % (11:20 pm)62 % (1:50 pm)
Barometer30.18 in30.21 in (9:20 am)30.15 in (12:50 am)
Wind Speed8.3 mph12.7 mph (1:50 pm)
Weather ElementAverage
Visibility6 mi
Wind DirectionSSW (210.2 °)

Weather ElementTotal
Precipitation---
Heating Degree Days16.8 (Base 65)
Averaged from 44 records on February 28, 2013
WEATHER CONDITIONS BREAKOUT
WIND DIRECTION BREAKOUT
WEATHER BY HOUR - FEBRUARY 28, 2013
[ °C ]   °F
Local TimeTemperatureDewpointHumidityBarometerVisibilityWind DirectionWind SpeedGust SpeedPrecipitationEventsConditions
12:50 AM44.6 °F41.0 °F87 %30.15 in6.2 miWNW (290°)10.4 mphPartly Cloudy
1:20 AM44.6 °F41.0 °F87 %30.18 in6.2 miWNW (290°)9.2 mphPartly Cloudy
1:50 AM44.6 °F41.0 °F87 %30.15 in6.2 miWNW (290°)10.4 mphPartly Cloudy
2:20 AM44.6 °F41.0 °F87 %30.18 in6.2 miWNW (290°)9.2 mphPartly Cloudy
2:50 AM44.6 °F41.0 °F87 %30.15 in6.2 miWNW (290°)10.4 mphPartly Cloudy
3:20 AM44.6 °F41.0 °F87 %30.18 in6.2 miEast (90°)9.2 mphPartly Cloudy
4:20 AM44.6 °F41.0 °F87 %30.18 in6.2 miEast (90°)9.2 mphPartly Cloudy
5:20 AM44.6 °F41.0 °F87 %30.18 in6.2 miEast (90°)9.2 mphPartly Cloudy
5:50 AM44.6 °F41.0 °F87 %30.15 in6.2 miWNW (290°)10.4 mphPartly Cloudy
6:20 AM42.8 °F39.2 °F87 %30.18 in6.2 miEast (90°)9.2 mphScattered Clouds
6:50 AM42.8 °F39.2 °F87 %30.18 in6.2 miWNW (300°)8.1 mphPartly Cloudy
7:20 AM42.8 °F39.2 °F87 %30.18 inWest (280°)9.2 mphClear
7:50 AM44.6 °F41.0 °F87 %30.18 inWest (270°)9.2 mphClear
8:20 AM46.4 °F41.0 °F81 %30.18 inWest (280°)10.4 mphClear
8:50 AM48.2 °F41.0 °F76 %30.18 inWest (280°)10.4 mphClear
9:20 AM50.0 °F42.8 °F76 %30.21 inWNW (290°)9.2 mphClear
9:50 AM51.8 °F42.8 °F71 %30.21 inWNW (300°)9.2 mphClear
10:20 AM51.8 °F42.8 °F71 %30.21 inNW (310°)9.2 mphClear
10:50 AM53.6 °F42.8 °F67 %30.21 inWNW (300°)9.2 mphClear
11:20 AM53.6 °F42.8 °F67 %30.21 inWNW (300°)9.2 mphClear
11:50 AM53.6 °F42.8 °F67 %30.21 in6.2 miNorth (360°)10.4 mphPartly Cloudy
12:20 PM53.6 °F42.8 °F67 %30.21 in6.2 miNorth (350°)10.4 mphPartly Cloudy
12:50 PM53.6 °F44.6 °F72 %30.18 in6.2 miNorth (350°)10.4 mphPartly Cloudy
1:20 PM55.4 °F42.8 °F63 %30.18 in6.2 miNorth (360°)10.4 mphPartly Cloudy
1:50 PM53.6 °F41.0 °F62 %30.18 in6.2 miNorth (10°)12.7 mphPartly Cloudy
2:20 PM53.6 °F42.8 °F67 %30.18 in6.2 miNorth (10°)10.4 mphPartly Cloudy
2:50 PM53.6 °F41.0 °F62 %30.18 in6.2 miNNE (20°)9.2 mphPartly Cloudy
3:20 PM53.6 °F42.8 °F67 %30.18 in6.2 miNNE (20°)9.2 mphPartly Cloudy
3:50 PM53.6 °F42.8 °F67 %30.18 inNNE (30°)9.2 mphClear
4:20 PM53.6 °F44.6 °F72 %30.18 inNNE (20°)9.2 mphClear
4:50 PM51.8 °F42.8 °F71 %30.18 inNNE (20°)6.9 mphClear
5:20 PM51.8 °F44.6 °F76 %30.18 inNNE (20°)5.8 mphClear
5:50 PM50.0 °F44.6 °F82 %30.18 inVariable2.3 mphClear
6:20 PM48.2 °F44.6 °F87 %30.18 in6.2 miVariable2.3 mphPartly Cloudy
6:50 PM48.2 °F44.6 °F87 %30.18 in6.2 miNNW (340°)3.5 mphPartly Cloudy
7:50 PM46.4 °F42.8 °F87 %30.18 in5.0 miWNW (290°)5.8 mphPartly Cloudy
8:20 PM46.4 °F44.6 °F93 %30.18 in6.2 miWest (270°)5.8 mphScattered Clouds
8:50 PM46.4 °F44.6 °F93 %30.18 in6.2 miWest (260°)5.8 mphScattered Clouds
9:20 PM46.4 °F44.6 °F93 %30.18 in6.2 miWest (270°)5.8 mphPartly Cloudy
9:50 PM44.6 °F42.8 °F93 %30.18 in6.2 miWest (260°)5.8 mphPartly Cloudy
10:20 PM42.8 °F41.0 °F93 %30.18 inWest (260°)4.6 mphClear
10:50 PM42.8 °F41.0 °F93 %30.18 inWSW (250°)4.6 mphClear
11:20 PM41.0 °F41.0 °F100 %30.18 in4.3 miSW (230°)6.9 mph
11:50 PM41.0 °F41.0 °F100 %30.18 in3.1 miWSW (240°)6.9 mphMist
Hourly data recorded from LIBD, located 1.01 miles away from Bari, Italy







STORIES FROM OUR PARTNERS